Regional Weather Roundup
Issued by NWS

Home | Current Version | Previous Version | Text Only | Print | Product List | Glossary Off
Versions: 1 2 3 4 5 6 7 8 9 10 11 12 13 14 15 16 17 18 19 20 21 22 23 24 25 26 27 28 29 30 31 32 33 34 35 36 37 38 39 40 41 42 43 44 45 46 47 48 49 50

000
ASUS43 KIND 252209
RWRIN

WEATHER ROUNDUP FOR INDIANA
NATIONAL WEATHER SERVICE INDIANAPOLIS IN
600 PM EDT THU MAY 25 2017

NOTE: "FAIR" INDICATES FEW OR NO CLOUDS BELOW 12,000 FEET WITH NO
SIGNIFICANT WEATHER AND/OR OBSTRUCTIONS TO VISIBILITY.

* - STATION DOES NOT REPORT WEATHER SUCH AS PRECIPITATION OR FOG.

+ - STATION NOT QUALITY CONTROLLED BY THE NATIONAL WEATHER SERVICE.
    USE DATA WITH CAUTION...ESPECIALLY DEWPOINT AND RELATIVE
    HUMIDITY OBSERVATIONS.

INZ001>003-010>013-019-020-252300-
NORTHWEST INDIANA

CITY           SKY/WX    TMP DP  RH WIND       PRES   REMARKS
GARY /AIRPORT/ MOSUNNY   61  52  72 NW14      29.67R
KNOX *+        MOSUNNY   61  46  59 NW15      29.64S
LA PORTE +     MOSUNNY   58  53  81 NW10G16   29.65S
MICHIGAN CITY+ PTSUNNY   55  52  88 NW8       29.66R
MONTICELLO +   CLOUDY    62  54  75 NW12      29.65R
RENSSELAER +   CLOUDY    63  54  72 N5        29.66R
VALPARAISO     PTSUNNY   64  54  69 NW12G17   29.65R

$$

LMZ046-743>745-252300-
SOUTHERN LAKE MICHIGAN

STATION/POSITION TIME  TEMP    WIND        PRES    WAVE
                       AIR SEA DIR/SP/G            HT
                 (UTC) (F)     (DEG/KT/KT) (MB)    (FT)
BURNS HARBOR     2140   51     320/  4/  8 1005.1R
MICHIGAN CITY    2140   51     280/  9/ 10   N/A
5NW MICH CITY    2200   49 51  330/ 10/ 12   N/A     3

$$

INZ004-005-014>016-021>024-252300-
NORTH CENTRAL INDIANA

CITY           SKY/WX    TMP DP  RH WIND       PRES   REMARKS
ELKHART        CLOUDY    61  55  82 NW12      29.61R
GOSHEN         CLOUDY    61  54  77 W15       29.60R
LOGANSPORT +   CLOUDY    61  54  77 NW10G17   29.64R
PERU/GRISSOM   CLOUDY    61  57  85 NW17      29.62R
ROCHESTER +    CLOUDY    61  55  82 NW14G21   29.63R
SOUTH BEND     CLOUDY    58  54  86 NW12      29.64R
WARSAW +       CLOUDY    59  54  82 NW13G20   29.61R

$$

INZ006>009-017-018-025>027-252300-
NORTHEAST INDIANA

CITY           SKY/WX    TMP DP  RH WIND       PRES   REMARKS
AUBURN +       CLOUDY    63  55  77 W8        29.58R
FORT WAYNE     CLOUDY    62  56  80 NW8       29.59R
HUNTINGTON +   CLOUDY    61  56  85 NW6G16    29.60R
KENDALLVILLE + CLOUDY    61  57  86 NW7       29.58R

$$

INZ028-029-035-036-043>045-051>053-252300-
WEST CENTRAL INDIANA

CITY           SKY/WX    TMP DP  RH WIND       PRES   REMARKS
CRAWFORDSVL +  CLOUDY    62  56  80 W15       29.67R
GREENCASTLE +  CLOUDY    63  54  72 W7        29.68R
LAFAYETTE      CLOUDY    63  56  78 W10       29.65R
TERRE HAUTE    MOSUNNY   67  54  63 NW12      29.69R

$$

INZ030>032-037>040-046>048-054>057-064-065-252300-
CENTRAL INDIANA

CITY           SKY/WX    TMP DP  RH WIND       PRES   REMARKS
CP ATTERBURY + CLOUDY    63  55  77 W8G16     29.66R
COLUMBUS       CLOUDY    64  55  72 NW12      29.66R
FRANKFORT +    CLOUDY    64  57  79 NW10      29.67R
GREENWOOD *+   CLOUDY    62  55  77 NW7       29.66R
INDIANAPOLIS   CLOUDY    62  56  80 NW8       29.65R
-EAGLE CREEK   CLOUDY    62  56  80 NW10      29.65R
KOKOMO +       CLOUDY    61  55  81 NW13      29.64R
MARION +       CLOUDY    61  55  82 NW16G24   29.63R HAZE
MT COMFORT *+  CLOUDY    61  54  77 NW17G23   29.65R
SHELBYVILLE    CLOUDY    64  54  69 NW15G22   29.64R
ZIONSVILLE +   CLOUDY    61  55  81 NW14      29.66R

$$

INZ033-034-041-042-049-050-058-059-252300-
EAST CENTRAL INDIANA

CITY           SKY/WX    TMP DP  RH WIND       PRES   REMARKS
MUNCIE         CLOUDY    61  55  81 NW15      29.61R
RICHMOND +     CLOUDY    59  55  88 W14G22    29.61R FOG

$$

INZ060-061-067>069-081>083-085>088-252300-
SOUTHWEST INDIANA

CITY           SKY/WX    TMP DP  RH WIND       PRES   REMARKS
EVANSVILLE     MOSUNNY   74  54  49 W14G21    29.71S
HUNTINGBURG *+ PTSUNNY   70  57  63 NW12      29.70R
WASHINGTON +   MOSUNNY   69  55  60 NW10      29.70R

$$

INZ062-063-066-070>080-084-089>092-252300-
SOUTH CENTRAL AND SOUTHEAST INDIANA

CITY           SKY/WX    TMP DP  RH WIND       PRES   REMARKS
BEDFORD +      PTSUNNY   66  54  63 W7        29.68R
BLOOMINGTON    MOSUNNY   67  53  61 VRB7G20   29.68R
MADISON *+     CLOUDY    63  55  77 W8        29.68R
NORTH VERNON + CLOUDY    63  55  77 W10G17    29.66R
SEYMOUR +      CLOUDY    68  55  64 W17G29    29.67R

$$





USA.gov is the U.S. government's official web portal to all federal, state and local government web resources and services.